Starlink 32840

operational
NORAD ID: 63363 Int'l Des: 2025-063 Owner: SPXS Country: US Constellation: starlink
LEOCIRCULAR

Starlink 32840について

説明を読み込み中...

リアルタイム位置

3D地球を読み込み中...

次回通過

高度履歴

Altitude vs Time

uPlot chart will show altitude changes over time

軌道要素

1 63363U 25063A 25351.61415032 .00012894 00000-0 44674-3 0 9997
2 63363 53.1608 70.8550 0001191 70.0265 290.0864 15.30197362 42218
Epoch: Dec 17, 2025 • Age: 6 hours

現在のステータス

高度 475.5 km
速度 7.63 km/s
衛星直下点 2.29°N, 29.27°E
打ち上げ日 Mar 26, 2025
運用期間 0.7 years
タイプ internet

技術仕様

分類 Payload
質量 730.00 kg
乾燥質量 700.00 kg
総質量 730.00 kg
長さ 0.30 m
直径 4.10 m
スパン 29.00 m
形状 Box + pan
製造者 SPXS
バスタイプ Starlink V2M
フェーズステータス In Orbit
所有者/国 SPXS/US

大規模コンステレーション

Loading constellations...